| time (UTC) | temp C | wind direction | speed KPH | gust KPH | rain 1hr cm | rain 24hr cm | rain mn cm | humidity % | barometer mb |
| 20260903205507 | 32 | 232 | 4.8 | 20.9 | 0.00 | 0.10 | 0.10 | 61 | 1012.7 |
| 20260903205010 | 32 | 195 | 4.8 | 20.9 | 0.00 | 0.10 | 0.10 | 63 | 1012.7 |
| 20260903204519 | 32 | 140 | 4.8 | 20.9 | 0.00 | 0.10 | 0.10 | 63 | 1012.8 |
| 20260903204011 | 32 | 198 | 6.4 | 22.5 | 0.00 | 0.10 | 0.10 | 63 | 1012.9 |
| 20260903203515 | 32 | 139 | 9.7 | 22.5 | 0.00 | 0.10 | 0.10 | 63 | 1012.9 |
| 20260903203026 | 32 | 153 | 6.4 | 20.9 | 0.00 | 0.10 | 0.10 | 63 | 1013.0 |
| 20260903202512 | 32 | 170 | 8.0 | 20.9 | 0.00 | 0.10 | 0.10 | 62 | 1013.2 |
| 20260903202014 | 32 | 185 | 6.4 | 20.9 | 0.00 | 0.10 | 0.10 | 63 | 1013.2 |
| 20260903201531 | 32 | 175 | 1.6 | 19.3 | 0.00 | 0.10 | 0.10 | 64 | 1013.2 |
| 20260903201015 | 32 | 200 | 4.8 | 19.3 | 0.00 | 0.10 | 0.10 | 63 | 1013.3 |
| 20260903200516 | 32 | 173 | 8.0 | 24.1 | 0.00 | 0.10 | 0.10 | 64 | 1013.4 |
| 20260903200033 | 32 | 134 | 9.7 | 24.1 | 0.00 | 0.10 | 0.10 | 64 | 1013.4 |
| 20260903195505 | 32 | 127 | 9.7 | 19.3 | 0.00 | 0.10 | 0.10 | 64 | 1013.3 |
| 20260903195006 | 32 | 153 | 4.8 | 20.9 | 0.00 | 0.10 | 0.10 | 66 | 1013.3 |
| 20260903194533 | 31 | 179 | 4.8 | 20.9 | 0.00 | 0.10 | 0.10 | 66 | 1013.4 |
| 20260903194009 | 31 | 120 | 4.8 | 22.5 | 0.00 | 0.10 | 0.10 | 66 | 1013.4 |
| 20260903193509 | 31 | 146 | 9.7 | 22.5 | 0.00 | 0.10 | 0.10 | 66 | 1013.4 |
| 20260903193026 | 31 | 161 | 6.4 | 22.5 | 0.00 | 0.10 | 0.10 | 66 | 1013.4 |
| 20260903192515 | 31 | 146 | 8.0 | 25.7 | 0.00 | 0.10 | 0.10 | 67 | 1013.5 |
| 20260903192011 | 31 | 213 | 11.3 | 25.7 | 0.00 | 0.10 | 0.10 | 67 | 1013.6 |
| 20260903191530 | 31 | 225 | 8.0 | 24.1 | 0.00 | 0.10 | 0.10 | 68 | 1013.7 |
| 20260903191012 | 31 | 151 | 12.9 | 25.7 | 0.00 | 0.10 | 0.10 | 69 | 1013.8 |
| 20260903190516 | 30 | 95 | 6.4 | 25.7 | 0.00 | 0.10 | 0.10 | 70 | 1013.9 |
| 20260903190031 | 30 | 150 | 8.0 | 22.5 | 0.00 | 0.10 | 0.10 | 70 | 1014.0 |
| 20260903185515 | 30 | 186 | 3.2 | 24.1 | 0.00 | 0.10 | 0.10 | 71 | 1014.1 |
| 20260903185015 | 30 | 164 | 4.8 | 24.1 | 0.00 | 0.10 | 0.10 | 72 | 1014.2 |
| 20260903184514 | 30 | 147 | 6.4 | 19.3 | 0.00 | 0.10 | 0.10 | 72 | 1014.3 |
| 20260903184006 | 30 | 169 | 6.4 | 19.3 | 0.00 | 0.10 | 0.10 | 72 | 1014.4 |
| 20260903183507 | 30 | 160 | 8.0 | 19.3 | 0.00 | 0.10 | 0.10 | 73 | 1014.4 |
| 20260903183031 | 29 | 164 | 8.0 | 16.1 | 0.00 | 0.10 | 0.10 | 75 | 1014.4 |
| 20260903182512 | 29 | 155 | 6.4 | 19.3 | 0.00 | 0.10 | 0.10 | 75 | 1014.4 |
| 20260903182009 | 28 | 165 | 8.0 | 22.5 | 0.00 | 0.10 | 0.10 | 76 | 1014.5 |
| 20260903181528 | 28 | 178 | 9.7 | 25.7 | 0.00 | 0.10 | 0.10 | 76 | 1014.5 |
| 20260903181009 | 28 | 147 | 8.0 | 27.4 | 0.00 | 0.10 | 0.10 | 76 | 1014.6 |
| 20260903180514 | 28 | 143 | 8.0 | 27.4 | 0.00 | 0.10 | 0.10 | 76 | 1014.7 |
| 20260903180035 | 28 | 200 | 9.7 | 22.5 | 0.00 | 0.10 | 0.10 | 76 | 1014.7 |
| 20260903175515 | 28 | 165 | 6.4 | 22.5 | 0.00 | 0.10 | 0.10 | 77 | 1014.7 |
| 20260903175015 | 28 | 147 | 8.0 | 22.5 | 0.00 | 0.10 | 0.10 | 78 | 1014.8 |
| 20260903174531 | 28 | 175 | 8.0 | 22.5 | 0.00 | 0.10 | 0.10 | 79 | 1014.8 |
| 20260903174016 | 27 | 172 | 4.8 | 17.7 | 0.00 | 0.10 | 0.10 | 81 | 1014.8 |
| 20260903173514 | 27 | 177 | 6.4 | 19.3 | 0.00 | 0.10 | 0.10 | 81 | 1014.9 |
| 20260903173016 | 27 | 169 | 9.7 | 24.1 | 0.00 | 0.10 | 0.10 | 82 | 1014.9 |
| 20260903172508 | 27 | 136 | 12.9 | 24.1 | 0.00 | 0.10 | 0.10 | 83 | 1015.0 |
| 20260903172008 | 27 | 144 | 4.8 | 20.9 | 0.00 | 0.10 | 0.10 | 83 | 1014.9 |
| 20260903171527 | 27 | 138 | 4.8 | 19.3 | 0.00 | 0.10 | 0.10 | 84 | 1015.0 |
| 20260903171010 | 27 | 202 | 4.8 | 17.7 | 0.00 | 0.10 | 0.10 | 84 | 1015.1 |
| 20260903170513 | 27 | 166 | 8.0 | 17.7 | 0.00 | 0.10 | 0.10 | 85 | 1015.1 |
| 20260903170026 | 27 | 187 | 8.0 | 25.7 | 0.00 | 0.10 | 0.10 | 85 | 1015.1 |
| 20260903165514 | 27 | 114 | 4.8 | 25.7 | 0.00 | 0.10 | 0.10 | 85 | 1015.1 |
| 20260903165015 | 26 | 142 | 8.0 | 17.7 | 0.00 | 0.10 | 0.10 | 86 | 1015.0 |
| 20260903164530 | 26 | 96 | 3.2 | 17.7 | 0.00 | 0.10 | 0.10 | 86 | 1015.0 |
| 20260903164016 | 26 | 145 | 6.4 | 19.3 | 0.00 | 0.10 | 0.10 | 86 | 1015.0 |
| 20260903163514 | 26 | 162 | 6.4 | 19.3 | 0.00 | 0.10 | 0.10 | 87 | 1015.0 |
| 20260903163031 | 26 | 129 | 6.4 | 17.7 | 0.00 | 0.10 | 0.10 | 87 | 1015.0 |
| 20260903162514 | 26 | 135 | 8.0 | 16.1 | 0.00 | 0.10 | 0.10 | 87 | 1014.9 |
| 20260903162016 | 26 | 149 | 4.8 | 17.7 | 0.00 | 0.10 | 0.10 | 88 | 1014.9 |
| 20260903161524 | 26 | 148 | 3.2 | 17.7 | 0.00 | 0.10 | 0.10 | 88 | 1014.8 |
| 20260903161010 | 26 | 132 | 6.4 | 17.7 | 0.00 | 0.10 | 0.10 | 88 | 1014.8 |
| 20260903160510 | 26 | 122 | 6.4 | 19.3 | 0.00 | 0.10 | 0.10 | 89 | 1014.8 |
| 20260903160033 | 26 | 146 | 4.8 | 19.3 | 0.00 | 0.10 | 0.10 | 89 | 1014.8 |
| 20260903155510 | 26 | 157 | 4.8 | 17.7 | 0.00 | 0.10 | 0.10 | 90 | 1014.8 |
| 20260903155021 | 26 | 144 | 4.8 | 14.5 | 0.00 | 0.10 | 0.10 | 91 | 1014.7 |
| 20260903154530 | 26 | 159 | 1.6 | 22.5 | 0.00 | 0.10 | 0.10 | 91 | 1014.7 |
| 20260903154016 | 26 | 146 | 8.0 | 22.5 | 0.00 | 0.10 | 0.10 | 91 | 1014.7 |
| 20260903153515 | 26 | 121 | 6.4 | 22.5 | 0.00 | 0.10 | 0.10 | 91 | 1014.6 |
| 20260903153030 | 26 | 151 | 4.8 | 22.5 | 0.00 | 0.10 | 0.10 | 91 | 1014.6 |
| 20260903152514 | 26 | 109 | 3.2 | 19.3 | 0.00 | 0.10 | 0.10 | 91 | 1014.5 |
| 20260903152021 | 26 | 138 | 3.2 | 14.5 | 0.00 | 0.10 | 0.10 | 91 | 1014.6 |
| 20260903151535 | 26 | 153 | 1.6 | 16.1 | 0.00 | 0.10 | 0.10 | 91 | 1014.6 |
| 20260903151015 | 26 | 163 | 6.4 | 16.1 | 0.00 | 0.10 | 0.10 | 91 | 1014.6 |
| 20260903150514 | 26 | 168 | 0.0 | 17.7 | 0.00 | 0.10 | 0.10 | 91 | 1014.6 |
| 20260903150021 | 26 | 165 | 8.0 | 17.7 | 0.00 | 0.10 | 0.10 | 91 | 1014.6 |
| 20260903145508 | 26 | 166 | 6.4 | 17.7 | 0.00 | 0.10 | 0.10 | 91 | 1014.6 |
| 20260903145010 | 26 | 166 | 1.6 | 16.1 | 0.00 | 0.10 | 0.10 | 92 | 1014.6 |
| 20260903144527 | 26 | 200 | 4.8 | 16.1 | 0.00 | 0.10 | 0.10 | 92 | 1014.6 |
| 20260903144014 | 26 | 156 | 3.2 | 12.9 | 0.00 | 0.10 | 0.10 | 93 | 1014.6 |
| 20260903143513 | 26 | 166 | 1.6 | 12.9 | 0.00 | 0.10 | 0.10 | 93 | 1014.7 |
| 20260903143036 | 26 | 148 | 1.6 | 12.9 | 0.00 | 0.10 | 0.10 | 93 | 1014.7 |
| 20260903142516 | 26 | 152 | 1.6 | 14.5 | 0.00 | 0.10 | 0.10 | 93 | 1014.6 |
| 20260903142021 | 25 | 147 | 1.6 | 14.5 | 0.00 | 0.10 | 0.10 | 93 | 1014.7 |
| 20260903141528 | 25 | 150 | 6.4 | 14.5 | 0.00 | 0.10 | 0.10 | 93 | 1014.8 |
| 20260903140506 | 25 | 166 | 1.6 | 14.5 | 0.00 | 0.10 | 0.10 | 94 | 1014.9 |
| 20260903140018 | 25 | 167 | 4.8 | 14.5 | 0.00 | 0.10 | 0.10 | 94 | 1014.9 |
| 20260903135508 | 25 | 172 | 3.2 | 22.5 | 0.00 | 0.10 | 0.10 | 94 | 1014.9 |
| 20260903135010 | 25 | 185 | 4.8 | 22.5 | 0.00 | 0.10 | 0.10 | 94 | 1014.8 |
| 20260903134527 | 25 | 163 | 0.0 | 12.9 | 0.00 | 0.10 | 0.10 | 94 | 1014.7 |
| 20260903134010 | 25 | 165 | 4.8 | 14.5 | 0.00 | 0.10 | 0.10 | 94 | 1014.6 |
| 20260903133510 | 25 | 155 | 4.8 | 19.3 | 0.00 | 0.10 | 0.10 | 94 | 1014.7 |
| 20260903133004 | 25 | 161 | 4.8 | 19.3 | 0.00 | 0.10 | 0.10 | 94 | 1014.7 |
| 20260903132504 | 25 | 157 | 4.8 | 16.1 | 0.00 | 0.10 | 0.10 | 94 | 1014.6 |
| 20260903132003 | 25 | 155 | 3.2 | 14.5 | 0.03 | 0.10 | 0.10 | 94 | 1014.6 |
| 20260903131515 | 25 | 178 | 1.6 | 16.1 | 0.03 | 0.10 | 0.10 | 94 | 1014.6 |
| 20260903131004 | 25 | 193 | 4.8 | 16.1 | 0.03 | 0.10 | 0.10 | 94 | 1014.6 |
| 20260903130503 | 25 | 143 | 4.8 | 16.1 | 0.05 | 0.10 | 0.10 | 94 | 1014.5 |
| 20260903130013 | 25 | 178 | 1.6 | 11.3 | 0.08 | 0.10 | 0.10 | 94 | 1014.5 |
| 20260903125504 | 25 | 180 | 1.6 | 9.7 | 0.10 | 0.10 | 0.10 | 94 | 1014.4 |
| 20260903125006 | 25 | 209 | 0.0 | 11.3 | 0.10 | 0.10 | 0.10 | 94 | 1014.3 |
| 20260903124533 | 25 | 182 | 3.2 | 11.3 | 0.10 | 0.10 | 0.10 | 94 | 1014.2 |
| 20260903124008 | 25 | 194 | 0.0 | 16.1 | 0.10 | 0.10 | 0.10 | 94 | 1014.2 |
| 20260903123511 | 25 | 202 | 6.4 | 16.1 | 0.10 | 0.10 | 0.10 | 93 | 1014.2 |
| 20260903123024 | 25 | 133 | 3.2 | 12.9 | 0.10 | 0.10 | 0.10 | 93 | 1014.2 |
| 20260903122512 | 25 | 160 | 1.6 | 14.5 | 0.10 | 0.10 | 0.10 | 93 | 1014.1 |
| 20260903122012 | 25 | 165 | 1.6 | 17.7 | 0.08 | 0.08 | 0.08 | 93 | 1014.0 |
| 20260903121505 | 25 | 160 | 8.0 | 17.7 | 0.08 | 0.08 | 0.08 | 92 | 1014.0 |
| 20260903121003 | 25 | 149 | 3.2 | 14.5 | 0.08 | 0.08 | 0.08 | 92 | 1014.2 |
| 20260903120505 | 25 | 149 | 3.2 | 17.7 | 0.05 | 0.05 | 0.05 | 92 | 1014.2 |
| 20260903120010 | 25 | 156 | 6.4 | 17.7 | 0.03 | 0.03 | 0.03 | 92 | 1014.1 |
| 20260903115504 | 25 | 163 | 4.8 | 16.1 | 0.00 | 0.00 | 0.00 | 92 | 1014.1 |
| 20260903115004 | 25 | 146 | 6.4 | 16.1 | 0.00 | 0.00 | 0.00 | 92 | 1014.1 |
| 20260903114519 | 25 | 134 | 1.6 | 17.7 | 0.00 | 0.00 | 0.00 | 92 | 1014.0 |
| 20260903114006 | 25 | 167 | 3.2 | 17.7 | 0.00 | 0.00 | 0.00 | 92 | 1014.0 |
| 20260903113510 | 25 | 135 | 3.2 | 14.5 | 0.00 | 0.00 | 0.00 | 92 | 1013.8 |
| 20260903113023 | 25 | 148 | 0.0 | 8.0 | 0.00 | 0.00 | 0.00 | 92 | 1013.8 |
| 20260903112512 | 25 | 145 | 0.0 | 8.0 | 0.00 | 0.00 | 0.00 | 92 | 1013.9 |
| 20260903112012 | 25 | 182 | 0.0 | 4.8 | 0.00 | 0.00 | 0.00 | 92 | 1013.9 |
| 20260903111525 | 25 | 183 | 0.0 | 4.8 | 0.00 | 0.00 | 0.00 | 92 | 1014.0 |
| 20260903111013 | 25 | 182 | 0.0 | 11.3 | 0.00 | 0.00 | 0.00 | 92 | 1013.8 |
| 20260903110517 | 25 | 168 | 1.6 | 11.3 | 0.00 | 0.00 | 0.00 | 92 | 1013.8 |
| 20260903110008 | 25 | 196 | 0.0 | 11.3 | 0.00 | 0.00 | 0.00 | 92 | 1013.9 |
| 20260903105504 | 25 | 142 | 0.0 | 11.3 | 0.00 | 0.00 | 0.00 | 92 | 1014.0 |
| 20260903105004 | 25 | 163 | 3.2 | 11.3 | 0.00 | 0.00 | 0.00 | 92 | 1013.8 |
| 20260903104511 | 25 | 157 | 0.0 | 20.9 | 0.00 | 0.00 | 0.00 | 92 | 1013.7 |
| 20260903104004 | 25 | 136 | 3.2 | 20.9 | 0.00 | 0.00 | 0.00 | 92 | 1013.7 |
| 20260903103508 | 25 | 146 | 3.2 | 17.7 | 0.00 | 0.00 | 0.00 | 92 | 1013.6 |
| 20260903103016 | 25 | 146 | 4.8 | 17.7 | 0.00 | 0.00 | 0.00 | 92 | 1013.6 |
| 20260903102509 | 25 | 159 | 1.6 | 12.9 | 0.00 | 0.00 | 0.00 | 92 | 1013.6 |
| 20260903102009 | 24 | 168 | 1.6 | 12.9 | 0.00 | 0.00 | 0.00 | 92 | 1013.6 |
| 20260903101530 | 24 | 157 | 0.0 | 11.3 | 0.00 | 0.00 | 0.00 | 92 | 1013.7 |
| 20260903101011 | 24 | 192 | 0.0 | 9.7 | 0.00 | 0.00 | 0.00 | 92 | 1013.6 |
| 20260903100512 | 24 | 157 | 1.6 | 9.7 | 0.00 | 0.00 | 0.00 | 92 | 1013.6 |
| 20260903100032 | 24 | 148 | 0.0 | 9.7 | 0.00 | 0.00 | 0.00 | 93 | 1013.6 |
| 20260903095514 | 24 | 173 | 0.0 | 8.0 | 0.00 | 0.00 | 0.00 | 93 | 1013.6 |
| 20260903095021 | 24 | 178 | 0.0 | 8.0 | 0.00 | 0.00 | 0.00 | 93 | 1013.7 |
| 20260903094510 | 24 | 169 | 0.0 | 6.4 | 0.00 | 0.00 | 0.00 | 93 | 1013.7 |
| 20260903094006 | 24 | 165 | 0.0 | 8.0 | 0.00 | 0.00 | 0.00 | 93 | 1013.7 |
| 20260903093504 | 24 | 165 | 0.0 | 11.3 | 0.00 | 0.00 | 0.00 | 93 | 1013.7 |
| 20260903093013 | 24 | 164 | 1.6 | 12.9 | 0.00 | 0.00 | 0.00 | 92 | 1013.6 |
| 20260903092507 | 24 | 162 | 0.0 | 12.9 | 0.00 | 0.00 | 0.00 | 92 | 1013.7 |
| 20260903092009 | 24 | 137 | 0.0 | 12.9 | 0.00 | 0.00 | 0.00 | 92 | 1013.8 |
| 20260903091521 | 24 | 182 | 0.0 | 9.7 | 0.00 | 0.00 | 0.00 | 92 | 1013.8 |
| 20260903091009 | 24 | 200 | 0.0 | 6.4 | 0.00 | 0.00 | 0.00 | 93 | 1013.7 |
| 20260903090510 | 24 | 203 | 0.0 | 6.4 | 0.00 | 0.00 | 0.00 | 93 | 1013.7 |
| 20260903090028 | 24 | 198 | 0.0 | 6.4 | 0.00 | 0.00 | 0.00 | 93 | 1013.5 |
| 20260903085512 | 24 | 199 | 0.0 | 6.4 | 0.00 | 0.00 | 0.00 | 93 | 1013.5 |
| 20260903085015 | 25 | 217 | 0.0 | 11.3 | 0.00 | 0.00 | 0.00 | 93 | 1013.4 |
| 20260903084530 | 25 | 220 | 0.0 | 12.9 | 0.00 | 0.00 | 0.00 | 93 | 1013.4 |
| 20260903084017 | 25 | 161 | 1.6 | 12.9 | 0.00 | 0.00 | 0.00 | 93 | 1013.3 |
| 20260903083504 | 25 | 188 | 0.0 | 12.9 | 0.00 | 0.00 | 0.00 | 94 | 1013.3 |
| 20260903083012 | 25 | 169 | 0.0 | 12.9 | 0.00 | 0.00 | 0.00 | 94 | 1013.2 |
| 20260903082503 | 24 | 162 | 1.6 | 17.7 | 0.00 | 0.00 | 0.00 | 94 | 1013.2 |
| 20260903082007 | 24 | 163 | 1.6 | 17.7 | 0.00 | 0.00 | 0.00 | 93 | 1013.2 |
| 20260903081514 | 24 | 167 | 0.0 | 14.5 | 0.00 | 0.00 | 0.00 | 93 | 1013.3 |
| 20260903081008 | 24 | 114 | 4.8 | 17.7 | 0.00 | 0.00 | 0.00 | 93 | 1013.3 |
| 20260903080508 | 24 | 125 | 9.7 | 20.9 | 0.00 | 0.00 | 0.00 | 93 | 1013.3 |
| 20260903080023 | 24 | 110 | 6.4 | 20.9 | 0.00 | 0.00 | 0.00 | 93 | 1013.3 |
| 20260903075510 | 24 | 131 | 9.7 | 20.9 | 0.00 | 0.00 | 0.00 | 93 | 1013.3 |
| 20260903075012 | 24 | 122 | 6.4 | 19.3 | 0.00 | 0.00 | 0.00 | 92 | 1013.2 |
| 20260903074527 | 24 | 110 | 8.0 | 17.7 | 0.00 | 0.00 | 0.00 | 92 | 1013.2 |
| 20260903074012 | 24 | 121 | 8.0 | 16.1 | 0.00 | 0.00 | 0.00 | 92 | 1013.2 |
| 20260903073516 | 24 | 128 | 6.4 | 16.1 | 0.00 | 0.00 | 0.00 | 92 | 1013.2 |
| 20260903073043 | 24 | 94 | 8.0 | 17.7 | 0.00 | 0.00 | 0.00 | 91 | 1013.2 |
| 20260903072513 | 24 | 115 | 9.7 | 17.7 | 0.00 | 0.00 | 0.00 | 90 | 1013.3 |
| 20260903072004 | 25 | 125 | 8.0 | 17.7 | 0.00 | 0.00 | 0.00 | 89 | 1013.4 |
| 20260903071510 | 25 | 116 | 8.0 | 17.7 | 0.00 | 0.00 | 0.00 | 88 | 1013.4 |
| 20260903071006 | 25 | 122 | 9.7 | 22.5 | 0.00 | 0.00 | 0.00 | 87 | 1013.5 |
| 20260903070507 | 25 | 121 | 9.7 | 22.5 | 0.00 | 0.00 | 0.00 | 86 | 1013.6 |
| 20260903070016 | 26 | 107 | 12.9 | 29.0 | 0.00 | 0.00 | 0.00 | 84 | 1013.7 |
| 20260903065508 | 26 | 123 | 16.1 | 29.0 | 0.00 | 0.00 | 0.00 | 83 | 1013.6 |
| 20260903065012 | 26 | 124 | 9.7 | 17.7 | 0.00 | 0.00 | 0.00 | 82 | 1013.5 |
| 20260903064526 | 26 | 119 | 6.4 | 17.7 | 0.00 | 0.00 | 0.00 | 81 | 1013.5 |
| 20260903064012 | 26 | 90 | 8.0 | 17.7 | 0.00 | 0.00 | 0.00 | 81 | 1013.5 |
| 20260903063504 | 26 | 107 | 4.8 | 16.1 | 0.00 | 0.00 | 0.00 | 81 | 1013.5 |
| 20260903063004 | 26 | 104 | 8.0 | 16.1 | 0.00 | 0.00 | 0.00 | 80 | 1013.3 |
| 20260903062503 | 27 | 120 | 6.4 | 14.5 | 0.00 | 0.00 | 0.00 | 80 | 1013.4 |
| 20260903062003 | 27 | 124 | 4.8 | 14.5 | 0.00 | 0.00 | 0.00 | 80 | 1013.4 |
| 20260903061512 | 27 | 69 | 6.4 | 14.5 | 0.00 | 0.00 | 0.00 | 79 | 1013.4 |
| 20260903061005 | 27 | 117 | 3.2 | 19.3 | 0.00 | 0.00 | 0.00 | 79 | 1013.5 |
| 20260903060507 | 27 | 136 | 8.0 | 19.3 | 0.00 | 0.00 | 0.00 | 79 | 1013.5 |
| 20260903060018 | 27 | 132 | 9.7 | 20.9 | 0.00 | 0.00 | 0.00 | 79 | 1013.6 |
| 20260903055509 | 27 | 123 | 6.4 | 20.9 | 0.00 | 0.00 | 0.00 | 79 | 1013.6 |
| 20260903055006 | 27 | 110 | 9.7 | 20.9 | 0.00 | 0.00 | 0.00 | 79 | 1013.7 |
| 20260903054523 | 27 | 127 | 11.3 | 20.9 | 0.00 | 0.00 | 0.00 | 79 | 1013.9 |
| 20260903054013 | 27 | 123 | 11.3 | 24.1 | 0.00 | 0.00 | 0.00 | 79 | 1013.8 |
| 20260903053512 | 27 | 120 | 14.5 | 24.1 | 0.00 | 0.00 | 0.00 | 78 | 1013.8 |
| 20260903053027 | 27 | 111 | 6.4 | 17.7 | 0.00 | 0.00 | 0.00 | 78 | 1013.9 |
| 20260903052512 | 27 | 121 | 6.4 | 20.9 | 0.00 | 0.00 | 0.00 | 78 | 1014.0 |
| 20260903052004 | 27 | 122 | 12.9 | 24.1 | 0.00 | 0.00 | 0.00 | 78 | 1014.0 |
| 20260903051506 | 27 | 123 | 11.3 | 25.7 | 0.00 | 0.00 | 0.00 | 78 | 1014.1 |
| 20260903051008 | 27 | 132 | 14.5 | 25.7 | 0.00 | 0.00 | 0.00 | 77 | 1014.1 |
| 20260903050506 | 27 | 98 | 6.4 | 16.1 | 0.00 | 0.00 | 0.00 | 77 | 1014.2 |
| 20260903050012 | 27 | 109 | 3.2 | 16.1 | 0.00 | 0.00 | 0.00 | 76 | 1014.3 |
| 20260903045508 | 27 | 121 | 6.4 | 16.1 | 0.00 | 0.00 | 0.00 | 76 | 1014.4 |
| 20260903045005 | 27 | 97 | 6.4 | 16.1 | 0.00 | 0.00 | 0.00 | 76 | 1014.4 |
| 20260903044518 | 27 | 123 | 1.6 | 22.5 | 0.00 | 0.00 | 0.00 | 75 | 1014.4 |
| 20260903044008 | 27 | 113 | 9.7 | 22.5 | 0.00 | 0.00 | 0.00 | 75 | 1014.3 |
| 20260903043508 | 27 | 107 | 6.4 | 22.5 | 0.00 | 0.00 | 0.00 | 75 | 1014.4 |
| 20260903043023 | 27 | 119 | 11.3 | 22.5 | 0.00 | 0.00 | 0.00 | 74 | 1014.3 |
| 20260903042510 | 27 | 121 | 8.0 | 20.9 | 0.00 | 0.00 | 0.00 | 74 | 1014.3 |
| 20260903042015 | 27 | 117 | 9.7 | 22.5 | 0.00 | 0.00 | 0.00 | 74 | 1014.3 |
| 20260903041529 | 27 | 98 | 12.9 | 22.5 | 0.00 | 0.00 | 0.00 | 73 | 1014.4 |
| 20260903041015 | 28 | 120 | 9.7 | 19.3 | 0.00 | 0.00 | 0.00 | 73 | 1014.4 |
| 20260903040504 | 28 | 134 | 11.3 | 19.3 | 0.00 | 0.00 | 0.00 | 73 | 1014.3 |
| 20260903040009 | 28 | 123 | 8.0 | 25.7 | 0.00 | 0.00 | 0.00 | 72 | 1014.4 |
| 20260903035503 | 28 | 116 | 9.7 | 25.7 | 0.00 | 0.00 | 0.00 | 72 | 1014.3 |
| 20260903035004 | 28 | 127 | 9.7 | 25.7 | 0.00 | 0.00 | 0.00 | 71 | 1014.3 |
| 20260903034519 | 28 | 126 | 9.7 | 20.9 | 0.00 | 0.00 | 0.00 | 71 | 1014.3 |
| 20260903034008 | 28 | 122 | 11.3 | 16.1 | 0.00 | 0.00 | 0.00 | 70 | 1014.3 |
| 20260903033509 | 28 | 113 | 9.7 | 17.7 | 0.00 | 0.00 | 0.00 | 70 | 1014.2 |
| 20260903033018 | 28 | 139 | 8.0 | 17.7 | 0.00 | 0.00 | 0.00 | 70 | 1014.2 |
| 20260903032511 | 28 | 126 | 3.2 | 17.7 | 0.00 | 0.00 | 0.00 | 69 | 1014.2 |
| 20260903032010 | 29 | 123 | 4.8 | 19.3 | 0.00 | 0.00 | 0.00 | 69 | 1014.1 |
| 20260903031528 | 29 | 131 | 8.0 | 19.3 | 0.00 | 0.00 | 0.00 | 68 | 1014.2 |
| 20260903031013 | 29 | 127 | 8.0 | 20.9 | 0.00 | 0.00 | 0.00 | 68 | 1014.1 |
| 20260903030514 | 29 | 115 | 12.9 | 20.9 | 0.00 | 0.00 | 0.00 | 67 | 1014.2 |
| 20260903030031 | 29 | 123 | 9.7 | 19.3 | 0.00 | 0.00 | 0.00 | 67 | 1014.1 |
| 20260903025514 | 30 | 126 | 6.4 | 19.3 | 0.00 | 0.00 | 0.00 | 66 | 1014.1 |
| 20260903025005 | 30 | 161 | 4.8 | 19.3 | 0.00 | 0.00 | 0.00 | 66 | 1014.1 |
| 20260903024511 | 30 | 139 | 3.2 | 17.7 | 0.00 | 0.00 | 0.00 | 66 | 1014.1 |
| 20260903024003 | 30 | 128 | 1.6 | 20.9 | 0.00 | 0.00 | 0.00 | 65 | 1014.1 |
| 20260903023504 | 30 | 169 | 6.4 | 25.7 | 0.00 | 0.00 | 0.00 | 65 | 1014.0 |
| 20260903023014 | 30 | 117 | 12.9 | 25.7 | 0.00 | 0.00 | 0.00 | 64 | 1014.0 |
| 20260903022508 | 30 | 121 | 9.7 | 24.1 | 0.00 | 0.00 | 0.00 | 64 | 1013.9 |
| 20260903022010 | 30 | 116 | 9.7 | 24.1 | 0.00 | 0.00 | 0.00 | 64 | 1013.8 |
| 20260903021523 | 30 | 134 | 11.3 | 22.5 | 0.00 | 0.00 | 0.00 | 63 | 1013.6 |
| 20260903021011 | 31 | 164 | 8.0 | 19.3 | 0.00 | 0.00 | 0.00 | 63 | 1013.6 |
| 20260903020512 | 31 | 143 | 8.0 | 27.4 | 0.00 | 0.00 | 0.00 | 62 | 1013.5 |
| 20260903020036 | 31 | 137 | 11.3 | 27.4 | 0.00 | 0.00 | 0.00 | 62 | 1013.3 |
| 20260903015514 | 31 | 115 | 11.3 | 24.1 | 0.00 | 0.00 | 0.00 | 61 | 1013.3 |
| 20260903015014 | 31 | 134 | 9.7 | 24.1 | 0.00 | 0.00 | 0.00 | 60 | 1013.2 |
| 20260903014529 | 32 | 130 | 6.4 | 20.9 | 0.00 | 0.00 | 0.00 | 60 | 1013.0 |
| 20260903014015 | 32 | 159 | 11.3 | 20.9 | 0.00 | 0.00 | 0.00 | 59 | 1012.9 |
| 20260903013504 | 32 | 139 | 6.4 | 20.9 | 0.00 | 0.00 | 0.00 | 58 | 1012.9 |
| 20260903013016 | 32 | 134 | 4.8 | 20.9 | 0.00 | 0.00 | 0.00 | 57 | 1012.7 |
| 20260903012503 | 32 | 129 | 11.3 | 27.4 | 0.00 | 0.00 | 0.00 | 56 | 1012.7 |
| 20260903012007 | 32 | 124 | 11.3 | 27.4 | 0.00 | 0.00 | 0.00 | 56 | 1012.5 |
| 20260903011518 | 32 | 117 | 6.4 | 25.7 | 0.00 | 0.00 | 0.00 | 55 | 1012.5 |
| 20260903011007 | 32 | 123 | 9.7 | 25.7 | 0.00 | 0.00 | 0.00 | 54 | 1012.5 |
| 20260903010511 | 33 | 116 | 11.3 | 20.9 | 0.00 | 0.00 | 0.00 | 54 | 1012.4 |
| 20260903010025 | 33 | 119 | 6.4 | 20.9 | 0.00 | 0.00 | 0.00 | 54 | 1012.4 |
| 20260903005511 | 33 | 112 | 8.0 | 19.3 | 0.00 | 0.00 | 0.00 | 54 | 1012.4 |
| 20260903005013 | 33 | 101 | 6.4 | 20.9 | 0.00 | 0.00 | 0.00 | 54 | 1012.4 |
| 20260903004533 | 33 | 129 | 11.3 | 20.9 | 0.00 | 0.00 | 0.00 | 53 | 1012.4 |
| 20260903004012 | 33 | 151 | 8.0 | 32.2 | 0.00 | 0.00 | 0.00 | 53 | 1012.4 |
| 20260903003513 | 33 | 113 | 9.7 | 32.2 | 0.00 | 0.00 | 0.00 | 53 | 1012.3 |
| 20260903003030 | 33 | 107 | 9.7 | 22.5 | 0.00 | 0.00 | 0.00 | 53 | 1012.3 |
| 20260903002519 | 33 | 115 | 12.9 | 22.5 | 0.00 | 0.00 | 0.00 | 53 | 1012.2 |
| 20260903002004 | 34 | 119 | 6.4 | 24.1 | 0.00 | 0.00 | 0.00 | 53 | 1012.1 |
| 20260903001515 | 34 | 118 | 14.5 | 24.1 | 0.00 | 0.00 | 0.00 | 52 | 1012.1 |
| 20260903001008 | 34 | 128 | 11.3 | 20.9 | 0.00 | 0.00 | 0.00 | 52 | 1012.1 |
| 20260903000507 | 34 | 119 | 4.8 | 20.9 | 0.00 | 0.00 | 0.00 | 52 | 1012.1 |
| 20260903000022 | 34 | 102 | 8.0 | 20.9 | 0.00 | 0.00 | 0.00 | 52 | 1012.2 |
| 20260902235513 | 34 | 132 | 6.4 | 14.5 | 0.00 | 0.00 | 0.00 | 52 | 1012.2 |
| 20260902235010 | 34 | 123 | 6.4 | 22.5 | 0.00 | 0.00 | 0.00 | 52 | 1012.1 |
| 20260902234528 | 34 | 90 | 9.7 | 22.5 | 0.00 | 0.00 | 0.00 | 53 | 1012.1 |
| 20260902234013 | 34 | 132 | 4.8 | 14.5 | 0.00 | 0.00 | 0.00 | 53 | 1012.0 |
| 20260902233512 | 34 | 118 | 1.6 | 16.1 | 0.00 | 0.00 | 0.00 | 53 | 1012.0 |
| 20260902233027 | 34 | 123 | 1.6 | 17.7 | 0.00 | 0.00 | 0.00 | 53 | 1012.0 |
| 20260902232514 | 34 | 114 | 8.0 | 17.7 | 0.00 | 0.00 | 0.00 | 53 | 1012.0 |
| 20260902232016 | 34 | 90 | 3.2 | 14.5 | 0.00 | 0.00 | 0.00 | 54 | 1012.0 |
| 20260902231530 | 33 | 106 | 4.8 | 12.9 | 0.00 | 0.00 | 0.00 | 55 | 1012.0 |
| 20260902231019 | 33 | 129 | 4.8 | 19.3 | 0.00 | 0.00 | 0.00 | 55 | 1012.1 |
| 20260902230505 | 33 | 85 | 9.7 | 19.3 | 0.00 | 0.00 | 0.00 | 55 | 1012.1 |
| 20260902230019 | 33 | 80 | 8.0 | 16.1 | 0.00 | 0.00 | 0.00 | 54 | 1012.1 |
| 20260902225508 | 33 | 111 | 3.2 | 16.1 | 0.00 | 0.00 | 0.00 | 55 | 1012.0 |
| 20260902225008 | 33 | 84 | 4.8 | 19.3 | 0.00 | 0.00 | 0.00 | 55 | 1012.0 |
| 20260902224523 | 33 | 92 | 8.0 | 20.9 | 0.00 | 0.00 | 0.00 | 55 | 1012.0 |
| 20260902224012 | 35 | 59 | 9.7 | 24.1 | 0.00 | 0.00 | 0.00 | 52 | 1012.1 |
| 20260902223512 | 36 | 125 | 12.9 | 24.1 | 0.00 | 0.00 | 0.00 | 49 | 1012.1 |
| 20260902223048 | 36 | 98 | 6.4 | 17.7 | 0.00 | 0.00 | 0.00 | 49 | 1011.9 |
| 20260902222514 | 36 | 88 | 4.8 | 17.7 | 0.00 | 0.00 | 0.00 | 47 | 1011.9 |
| 20260902222015 | 37 | 96 | 6.4 | 17.7 | 0.00 | 0.00 | 0.00 | 46 | 1011.8 |
| 20260902221532 | 37 | 91 | 4.8 | 17.7 | 0.00 | 0.00 | 0.00 | 46 | 1011.8 |
| 20260902221015 | 36 | 138 | 8.0 | 16.1 | 0.00 | 0.00 | 0.00 | 46 | 1011.9 |
| 20260902220516 | 36 | 58 | 6.4 | 19.3 | 0.00 | 0.00 | 0.00 | 46 | 1011.8 |
| 20260902220030 | 36 | 123 | 6.4 | 19.3 | 0.00 | 0.00 | 0.00 | 46 | 1011.9 |
| 20260902215515 | 37 | 72 | 8.0 | 19.3 | 0.00 | 0.00 | 0.00 | 46 | 1011.8 |
| 20260902215007 | 37 | 47 | 3.2 | 14.5 | 0.00 | 0.00 | 0.00 | 46 | 1012.0 |
| 20260902214520 | 37 | 94 | 3.2 | 20.9 | 0.00 | 0.00 | 0.00 | 45 | 1012.0 |
| 20260902214009 | 37 | 338 | 6.4 | 20.9 | 0.00 | 0.00 | 0.00 | 46 | 1012.0 |
| 20260902213509 | 37 | 120 | 9.7 | 20.9 | 0.00 | 0.00 | 0.00 | 46 | 1012.1 |
| 20260902213022 | 37 | 84 | 8.0 | 16.1 | 0.00 | 0.00 | 0.00 | 45 | 1012.1 |
| 20260902212513 | 36 | 103 | 4.8 | 17.7 | 0.00 | 0.00 | 0.00 | 45 | 1012.1 |
| 20260902212018 | 36 | 105 | 6.4 | 17.7 | 0.00 | 0.00 | 0.00 | 45 | 1012.2 |
| 20260902211526 | 37 | 84 | 6.4 | 17.7 | 0.00 | 0.00 | 0.00 | 45 | 1012.2 |
| 20260902211014 | 37 | 91 | 1.6 | 17.7 | 0.00 | 0.00 | 0.00 | 45 | 1012.2 |
| 20260902210519 | 37 | 113 | 3.2 | 12.9 | 0.00 | 0.00 | 0.00 | 46 | 1012.2 |
| 20260902210031 | 36 | 86 | 0.0 | 14.5 | 0.00 | 0.00 | 0.00 | 46 | 1012.3 |